Theta_e
349 348 347 349 353 353 352 352 352 355 354 354 353 345 352 349 347 348 349 349 347 346 346 347 346 342 341 340 340 340 339 339 339 339 340 339 339 339
350 347 347 347 348 353 354 352 352 353 355 351 352 352 354 355 353 349 352 348 349 349 349 349 347 343 342 341 340 340 340 339 339 340 340 340 340 340
347 348 347 348 351 347 350 351 353 352 352 351 351 352 350 351 353 346 350 353 354 349 349 348 346 344 343 342 342 341 341 341 341 340 340 340 340 340
350 351 350 351 353 346 347 349 348 352 352 353 353 354 353 352 350 350 352 350 352 351 348 348 347 346 345 345 344 343 343 342 342 341 341 341 340 340
352 353 347 350 353 352 352 353 353 353 353 353 353 354 353 354 355 351 351 353 352 350 349 349 348 349 349 349 348 347 346 344 342 342 342 342 341 340
353 353 353 354 354 354 352 354 354 353 354 354 353 352 352 353 353 353 353 354 352 352 350 350 350 349 349 349 350 349 347 347 346 346 344 344 343 341
353 352 352 353 350 351 353 354 355 353 352 353 353 352 352 353 353 352 353 352 352 353 352 352 351 349 348 346 346 348 347 347 347 347 347 346 344 342
353 353 353 351 350 350 350 351 351 354 354 352 351 352 352 352 351 351 352 352 351 352 351 349 350 349 349 349 347 344 344 346 346 346 346 346 345 343
352 352 352 351 351 353 352 350 351 351 351 352 353 353 352 354 353 353 352 352 352 350 351 350 349 350 349 347 346 344 344 346 345 345 345 345 345 343
350 352 352 352 353 352 352 352 352 350 350 351 351 353 353 352 351 351 353 352 351 350 351 350 347 347 347 348 347 345 344 344 344 344 344 344 344 343
352 353 350 348 352 348 349 351 352 352 350 349 349 349 348 347 348 350 350 348 348 348 349 348 347 347 347 345 345 344 343 343 343 342 342 341 341 340
352 353 350 349 350 348 348 350 352 351 352 351 348 347 347 347 347 347 346 347 346 345 343 344 346 345 343 341 342 340 339 339 336 334 337 337 336 335
350 351 351 348 346 345 345 347 349 351 351 348 350 349 346 343 340 341 341 340 339 340 338 337 336 338 340 339 337 336 336 333 332 331 333 333 332 331
350 349 346 345 345 345 345 346 346 347 348 347 347 345 341 338 336 333 332 331 331 331 330 330 330 331 330 329 331 331 330 328 327 326 326 325 326 326
345 345 344 343 342 342 343 343 343 344 346 346 345 340 334 331 328 327 325 325 326 327 324 325 325 325 325 326 325 324 321 321 319 318 319 317 318 319
342 342 339 341 342 340 338 338 338 339 340 340 336 331 327 326 325 325 326 324 328 324 323 322 322 323 324 325 323 321 319 317 314 314 313 313 314 315
340 337 338 337 337 336 335 334 332 331 332 330 328 327 325 325 324 324 322 323 324 324 324 324 321 320 321 321 320 318 316 313 311 310 311 311 312 313
336 336 335 336 334 334 336 332 329 327 327 326 326 325 325 325 324 323 323 326 326 324 324 324 325 324 323 320 318 318 316 312 310 310 312 312 310 311
338 338 339 337 336 337 334 329 328 326 324 324 324 323 324 323 324 325 325 325 323 323 322 323 324 325 326 325 321 316 317 315 314 315 313 316 316 313
339 340 339 338 338 336 330 327 326 324 324 323 322 322 322 322 323 323 322 322 322 321 321 321 320 320 321 322 321 321 316 318 318 317 318 317 314 314
338 339 338 338 336 331 328 326 325 325 324 322 322 322 321 321 322 321 319 318 318 319 319 319 319 314 318 319 320 321 322 319 318 321 319 319 319 318
337 339 338 336 334 330 328 327 326 324 323 323 322 321 321 320 320 320 320 320 321 321 321 320 320 319 319 317 318 318 319 322 321 318 317 319 320 321
336 338 337 335 333 331 330 329 328 326 325 324 323 323 321 320 319 320 320 320 321 321 321 321 321 321 320 319 316 317 319 319 319 321 321 320 319 319
Wind_Speed
4 4 5 4 4 4 3 2 2 3 2 3 1 2 5 10 14 13 13 13 12 12 13 15 14 14 14 14 14 14 15 15 15 16 16 16 17 19
6 6 5 4 4 2 4 4 4 4 2 3 4 4 4 4 6 7 10 14 12 16 14 15 16 16 16 16 16 16 16 16 16 17 17 16 16 16
9 8 8 7 6 4 6 5 5 5 7 6 4 5 6 4 6 8 5 9 10 11 13 14 16 17 17 17 18 18 18 18 18 19 19 18 18 17
9 8 7 6 7 7 7 9 8 7 7 8 5 4 4 5 6 8 8 7 9 12 12 14 16 17 18 19 20 20 21 22 22 21 21 21 21 20
11 10 10 9 7 7 6 8 8 8 9 9 10 6 6 5 6 7 8 9 10 13 15 16 17 19 20 21 22 22 23 24 25 24 24 24 23 23
12 12 11 11 11 9 9 10 9 10 10 11 11 12 10 8 8 9 9 8 9 10 13 15 18 19 21 23 25 24 25 26 27 27 27 27 26 26
13 14 14 14 16 14 12 12 11 12 12 11 11 11 11 10 10 8 9 9 11 10 11 13 13 14 17 19 22 23 24 24 26 27 28 28 28 28
16 16 15 17 18 18 19 19 18 15 15 15 14 14 14 13 12 11 11 10 11 6 8 12 11 14 16 17 20 21 21 22 22 24 26 27 27 28
17 17 16 16 16 16 18 20 21 21 22 19 17 16 15 13 10 11 12 13 13 12 10 16 14 17 17 18 21 21 21 22 22 23 24 25 27 28
21 19 17 17 16 17 15 15 17 19 23 23 22 18 14 13 12 11 11 12 13 13 12 11 14 18 17 17 19 18 18 19 20 20 20 21 23 25
19 19 20 21 18 20 17 17 18 18 17 22 22 20 18 18 16 12 10 8 8 11 8 11 16 16 16 20 16 15 14 14 15 17 19 23 23 21
15 16 20 17 17 18 18 16 17 18 14 11 14 16 15 15 15 12 11 10 9 5 4 6 8 6 7 11 4 11 10 15 24 24 21 21 21 18
11 12 12 15 17 19 19 18 19 14 10 9 10 9 8 10 9 8 8 8 8 9 6 7 7 10 9 14 14 18 18 15 18 20 22 22 17 12
9 9 9 12 13 13 13 13 16 16 10 8 8 7 6 4 4 6 9 8 7 10 12 9 7 8 10 8 9 11 14 18 16 16 17 15 13 8
10 8 7 8 6 5 5 5 5 5 6 7 5 4 2 2 2 2 3 3 2 2 4 6 6 8 7 9 9 9 15 9 11 13 12 10 7 4
11 10 8 8 9 7 4 5 5 5 5 5 5 5 3 2 2 3 3 1 1 1 3 3 4 4 5 7 6 9 9 8 14 10 8 6 4 3
13 11 11 11 10 8 6 5 4 3 5 6 7 7 7 6 4 4 3 4 4 3 4 5 4 3 5 10 8 9 10 7 9 8 6 4 2 2
13 11 11 11 11 10 9 7 6 7 7 8 8 7 6 6 6 5 6 5 6 5 5 6 4 1 1 3 13 10 7 7 8 7 5 4 2 1
13 13 13 14 13 12 11 10 10 10 11 11 10 8 7 6 7 7 7 5 6 5 6 6 6 5 4 4 5 12 7 6 6 6 7 6 6 2
16 14 15 14 13 12 11 12 11 11 11 11 10 11 10 9 8 8 7 7 6 5 4 5 6 6 7 4 3 5 6 5 5 5 6 8 9 8
18 17 16 16 15 14 14 14 14 14 14 12 10 10 9 9 9 10 9 8 7 5 5 4 2 1 2 3 2 2 2 3 1 1 2 3 4 4
18 19 17 17 16 16 15 15 14 15 14 13 13 11 11 11 11 11 10 9 8 5 3 2 3 2 3 4 4 2 3 3 7 6 7 8 4 3
18 19 18 18 18 16 16 15 15 15 15 14 13 12 12 13 14 14 12 11 7 6 5 5 5 5 6 5 6 6 4 5 4 7 10 12 13 12
Wind_Direction
261 288 286 267 254 245 273 244 322 323 336 46 254 326 244 243 243 244 250 247 244 247 250 252 254 256 256 256 259 262 264 267 271 276 279 279 272 262
270 283 280 267 288 275 231 235 264 273 302 331 336 318 296 268 254 250 254 243 254 250 255 256 249 254 256 258 261 264 266 267 269 272 275 277 276 273
261 270 271 259 269 278 267 262 239 244 278 292 300 314 321 294 261 269 283 245 258 258 258 256 253 256 260 261 264 265 266 267 268 269 273 275 275 274
252 248 263 265 261 254 241 254 259 251 257 274 288 281 284 287 282 274 266 259 262 264 261 262 260 261 262 263 264 265 267 267 267 269 271 272 273 273
243 241 243 247 241 244 251 254 252 243 242 251 268 266 272 271 274 276 272 263 265 266 266 266 265 265 264 264 265 267 268 269 268 269 269 270 271 271
240 243 248 247 248 247 245 246 245 248 246 251 261 269 271 272 269 267 264 259 264 258 265 262 266 273 270 267 267 270 272 270 270 270 270 270 270 269
247 249 251 250 253 251 250 247 238 243 247 248 256 262 264 262 263 271 270 280 276 267 270 269 268 269 268 272 268 269 273 276 276 275 274 273 272 270
250 254 256 259 258 256 255 252 251 246 243 249 254 251 257 258 264 259 266 270 286 265 267 280 273 271 274 269 270 282 284 284 283 282 278 274 272 271
253 251 254 256 259 255 258 258 254 251 246 245 252 259 268 264 268 260 260 263 269 277 281 283 282 277 282 281 282 289 289 286 285 284 282 277 274 271
247 251 257 262 257 255 259 262 257 258 255 247 245 253 253 261 262 267 269 270 270 274 274 278 286 283 289 289 293 301 298 289 288 290 290 286 281 277
233 244 244 252 258 266 266 264 265 264 253 245 245 247 258 265 261 257 253 258 271 276 249 270 291 288 290 296 296 292 301 303 307 306 299 296 292 284
225 231 245 243 252 257 255 256 259 261 257 243 244 247 255 256 253 246 245 252 264 279 238 250 295 318 302 297 312 320 324 311 308 307 303 303 301 294
221 227 233 247 256 260 257 249 251 257 253 244 232 231 224 226 254 255 256 257 263 267 265 284 295 299 281 295 292 302 305 310 313 311 307 304 304 296
208 223 251 267 270 269 260 256 245 243 242 237 223 212 201 213 262 281 278 270 266 267 281 291 285 297 303 301 297 313 311 312 314 317 318 321 327 326
226 231 239 266 258 253 244 220 210 211 220 223 218 185 198 234 284 317 323 315 287 323 320 319 308 303 296 292 310 319 334 319 344 347 344 351 357 358
215 212 219 222 212 221 184 175 178 188 200 204 184 161 148 113 89 65 56 59 147 44 16 1 350 8 351 344 335 339 347 336 342 357 2 12 28 39
195 194 181 183 186 195 195 198 189 175 171 162 154 149 140 134 113 100 100 85 98 65 44 23 358 33 34 18 360 352 349 354 359 4 19 39 67 101
182 179 188 193 195 197 202 191 181 165 157 150 146 146 145 145 137 124 122 118 99 72 48 30 30 88 22 355 21 4 9 9 16 14 11 17 4 209
201 196 200 200 199 200 195 186 178 169 162 158 154 155 158 154 146 142 136 123 99 83 63 47 53 39 29 35 357 16 26 27 36 34 19 12 31 69
210 203 198 196 197 194 187 180 174 173 172 170 168 168 172 171 162 156 147 134 128 119 110 88 70 50 34 27 334 351 26 28 29 46 57 72 81 91
207 205 197 191 191 190 191 187 181 182 180 179 180 183 181 181 179 171 160 153 151 156 147 139 148 32 341 311 282 3 313 336 167 230 158 116 122 145
208 211 200 189 189 190 190 189 186 184 186 188 191 191 196 189 188 188 187 186 194 193 198 218 226 226 260 273 307 306 336 269 281 262 228 218 256 232
214 211 202 191 186 188 192 198 197 190 192 197 195 197 206 208 205 201 200 203 207 211 229 249 244 243 253 256 265 266 260 271 268 260 264 266 250 241